Hourly Data Report for December 15, 2020

CARBERRY CS
MANITOBA
Current Station Operator: ECCC - MSC

49°54'20.900" N
99°21'26.800" W
383.50 m
5010547
71170
WZE

Download Data

Hourly Data (December 2020)
Hourly Data Report for December 15, 2020
TIME
LST
Temp Definition
°C
Dew Point Definition
°C
Rel Hum Definition
%
Precip. Amount Definition
mm

Wind Dir Definition
10's deg

Wind Spd Definition
km/h
Visibility Definition
km
Stn Press Definition
kPa
Hmdx Definition


Wind Chill Definition


Weather Definition


00:00 -14.3 -17.0 80 0.0 14 10   97.67   -20 LegendNANA
01:00 -13.9 -16.4 82 0.0 12 9   97.59   -20 LegendNANA
02:00 -13.6 -15.9 83 0.0 10 10   97.54   -20 LegendNANA
03:00 -13.3 -15.5 84 0.0 9 9   97.54   -19 LegendNANA
04:00 -13.8 -15.9 84 0.0 8 11   97.50   -20 LegendNANA
05:00 -14.0 -16.0 85 0.0 8 10   97.48   -20 LegendNANA
06:00 -14.1 -16.0 85 0.0 11 10   97.42   -20 LegendNANA
07:00 -13.9 -15.8 86 0.0 9 7   97.40   -19 LegendNANA
08:00 -13.8 -15.7 86 0.0 7 5   97.40   -17 LegendNANA
09:00 -13.8 -15.7 85 0.0 8 3   97.37   -16 LegendNANA
10:00 -13.4 -15.4 85 0.0 1 4   97.34   -16 LegendNANA
11:00 -13.3 -15.6 83 0.0 3 6   97.33   -17 LegendNANA
12:00 -12.7 -15.6 79 0.0 3 1   97.28   -13 LegendNANA
13:00 -11.9 -14.5 81 0.0 6 2   97.18   -13 LegendNANA
14:00 -11.4 -14.0 81 0.0 2 2   97.12   -13 LegendNANA
15:00 -10.5 -13.1 81 0.0 12 5   97.03   -14 LegendNANA
16:00 -9.9 -12.6 81 0.0 13 10   96.98   -15 LegendNANA
17:00 -9.4 -12.0 82 0.0 14 10   96.94   -15 LegendNANA
18:00 -9.4 -11.8 82 0.0 14 11   96.87   -15 LegendNANA
19:00 -9.4 -11.5 84 0.0 14 8   96.76   -14 LegendNANA
20:00 -9.2 -11.3 85 0.0 14 11   96.71   -15 LegendNANA
21:00 -8.6 -10.9 83 0.0 15 12   96.59   -14 LegendNANA
22:00 -8.4 -10.8 82 0.0 16 13   96.51   -14 LegendNANA
23:00 -8.1 -10.5 83 0.0 16 12   96.38   -14 LegendNANA

Notes on Data Quality.

Legend

  • E = Estimated
  • M = Missing
  • NA = Not Available*
  • [empty] = Indicates an unobserved value
Date modified: